Wind_Speed
9 9 9 9 9 9 9 8 8 8 8 8 8 8 8 7 7 6 6 5 5 5 6 7 8 8 7 9 13 17 17 16 15 15 14 9 8 10 10 11 13 13 13 11 11 13 13 15 16 16 18 17 15 13 12 10 9 8 6 4 5 4 2 4 6 6 9 12 11 10 10 10 6 3 3 4 2 1 3 4 4 5 5 6 5 6 6 8
10 10 10 10 10 10 10 9 9 8 8 8 8 8 8 8 7 6 6 5 5 4 5 5 7 9 8 7 9 13 17 18 18 17 14 9 10 12 11 12 12 13 14 12 12 14 15 17 18 18 19 19 17 14 13 12 10 9 7 7 6 3 1 5 7 6 9 12 10 10 11 10 6 4 5 3 2 0 3 5 6 6 6 7 7 7 8 8
11 11 11 11 11 11 11 11 10 10 10 9 9 9 8 8 8 7 6 5 5 4 4 4 5 8 9 8 7 8 13 18 19 18 15 13 14 12 10 10 10 13 14 15 17 17 19 22 21 20 19 19 17 15 14 13 12 9 7 7 6 4 2 3 4 5 9 10 10 10 10 10 8 7 5 1 1 1 2 4 5 6 7 7 7 7 8 9
12 12 12 11 11 12 12 12 12 11 11 11 10 10 9 9 8 8 7 6 5 4 4 3 3 6 8 8 8 7 9 15 18 19 17 16 17 14 11 10 11 13 15 18 20 21 23 22 19 19 18 18 16 14 14 13 12 9 8 8 7 5 3 1 3 6 8 8 10 10 8 9 10 9 5 2 3 1 0 1 3 5 6 6 7 7 8 10
13 13 13 13 13 12 12 12 12 12 12 11 11 11 10 10 9 8 8 7 6 5 4 3 3 4 6 7 8 7 7 10 13 18 19 18 19 17 14 13 12 13 14 17 18 19 19 16 17 18 16 15 14 13 14 14 12 10 10 10 9 7 4 6 7 9 7 7 9 9 8 8 10 10 8 7 7 3 2 1 2 3 5 6 6 7 8 10
15 15 15 14 14 14 13 13 12 12 12 11 11 11 10 10 9 9 8 8 8 7 6 5 3 4 5 6 7 7 7 7 9 13 17 19 20 18 16 15 14 12 12 14 17 16 15 15 16 17 16 14 13 14 15 14 13 11 10 11 12 11 7 8 8 8 6 7 8 6 10 10 10 12 10 11 10 6 4 1 3 4 5 5 6 7 8 10
18 17 17 16 16 15 15 14 13 13 12 12 12 11 11 10 9 9 8 8 8 9 8 6 5 5 5 6 6 6 6 6 7 9 11 16 19 20 18 16 15 12 11 13 15 15 13 14 15 16 17 14 13 15 15 15 13 12 11 13 14 13 10 8 8 6 6 8 7 4 8 12 9 12 11 9 10 9 6 2 2 4 4 4 5 6 7 9
19 19 19 18 18 17 17 16 15 14 14 14 13 13 12 11 10 9 9 8 8 9 9 8 7 7 7 7 5 5 6 6 6 6 7 11 15 19 19 18 16 13 12 13 15 15 14 14 16 18 16 13 15 17 16 15 14 14 15 15 15 14 12 9 10 7 6 7 7 6 9 12 9 8 10 9 10 9 8 5 2 1 2 3 5 5 5 7
20 20 20 19 19 19 18 18 18 17 16 16 15 14 13 12 11 10 9 9 9 9 9 9 9 9 8 8 6 5 6 6 5 4 6 8 11 16 18 19 17 15 14 13 15 16 13 14 18 18 16 17 20 20 17 15 16 18 19 18 18 17 16 13 11 9 4 4 7 7 9 11 8 5 7 9 10 8 8 7 5 2 1 2 6 7 5 5
20 20 20 20 20 20 19 19 19 19 19 18 17 16 14 12 11 10 9 9 9 9 9 9 9 9 10 10 8 6 6 6 7 5 4 7 10 13 17 18 18 17 16 15 15 13 12 15 20 21 23 25 24 22 18 16 19 23 22 21 21 19 17 14 12 10 5 1 4 7 7 7 5 4 5 6 8 8 8 7 6 4 2 1 5 7 6 5
20 20 20 20 20 20 20 20 20 20 20 20 19 17 15 13 12 11 10 9 9 9 10 9 9 10 10 11 10 7 7 7 7 8 5 5 8 11 14 17 18 18 17 16 14 13 15 19 24 26 27 27 25 23 19 19 24 26 25 23 20 20 19 14 11 11 9 4 2 6 6 4 3 3 3 4 6 6 8 8 7 6 4 0 4 7 7 6
18 19 19 20 20 20 21 21 21 21 21 21 20 18 16 15 13 12 11 9 8 9 9 9 10 9 10 12 10 7 8 9 8 9 7 5 6 9 12 14 16 17 17 17 15 16 19 22 26 25 23 24 25 24 21 25 29 27 26 24 21 22 21 16 12 11 10 6 1 4 5 2 2 3 2 3 4 5 6 10 10 7 5 2 1 4 7 8
17 17 18 19 19 20 20 21 21 21 22 23 21 20 18 16 14 14 13 11 9 10 8 8 9 10 12 12 9 8 9 9 11 10 7 6 7 7 9 12 14 16 17 18 18 19 20 23 24 21 23 25 25 25 23 27 30 28 27 26 24 24 22 19 15 12 10 8 4 4 5 1 3 4 4 4 4 4 4 9 12 9 5 3 1 2 5 9
18 18 18 18 19 19 20 20 20 21 23 24 23 21 20 18 17 16 15 13 11 10 9 8 9 10 13 11 8 9 8 11 14 11 8 8 8 8 8 10 12 13 16 18 20 21 22 22 22 23 25 24 24 26 27 29 30 29 28 27 27 26 24 22 18 13 9 7 5 3 1 3 6 7 7 5 5 4 4 7 11 9 5 3 2 0 4 8
20 19 19 19 19 19 19 19 19 21 23 24 23 22 21 20 19 18 16 15 13 12 10 10 11 11 14 11 7 9 11 14 14 11 10 10 9 9 9 10 11 12 14 17 20 22 24 23 21 22 23 23 27 28 27 28 29 29 27 25 24 27 29 26 20 12 7 5 4 3 2 6 7 9 10 9 8 6 5 6 11 9 5 2 2 2 2 6
23 22 21 20 20 20 20 19 20 21 23 23 23 22 22 21 21 20 19 17 15 14 13 13 13 13 15 12 8 11 14 14 12 10 13 12 10 11 9 9 10 10 11 14 18 22 25 24 21 21 23 25 27 26 26 26 26 24 20 16 16 21 28 28 20 13 9 7 3 3 5 9 9 10 14 13 9 6 7 8 10 10 5 2 2 3 1 4
26 25 24 23 22 22 21 21 20 22 24 23 23 22 21 21 23 22 21 19 18 17 16 15 16 15 16 15 12 13 14 14 11 11 14 14 11 10 10 10 10 10 12 13 15 19 22 23 23 22 22 24 24 26 24 18 17 18 13 9 10 13 19 23 19 14 12 8 3 2 4 9 9 11 14 13 9 7 9 9 10 10 7 3 2 2 2 2
29 29 28 27 26 25 24 23 22 23 24 23 23 23 22 22 23 23 22 21 20 19 18 18 17 17 17 17 15 14 14 14 13 12 15 17 14 11 12 12 11 11 12 12 12 14 16 19 23 24 24 23 23 25 17 4 6 15 13 10 10 11 14 20 19 16 13 9 6 5 2 6 7 8 11 11 9 9 11 11 10 10 8 5 0 1 1 1
32 32 31 31 30 29 27 25 24 25 26 24 23 23 23 23 23 24 22 21 21 21 20 20 18 18 19 20 19 16 14 16 16 13 14 17 16 13 13 13 13 12 11 10 11 12 13 16 20 22 23 23 22 22 15 7 9 14 16 16 15 14 14 19 21 17 15 13 11 7 2 1 2 5 7 9 9 9 12 14 12 10 8 5 1 1 1 1
34 34 34 34 33 32 31 28 27 27 28 27 25 24 25 24 24 24 22 22 23 23 21 20 19 19 21 22 21 18 16 17 17 16 15 17 17 15 15 15 14 13 10 11 11 12 13 12 13 15 19 20 20 21 18 17 17 15 19 21 19 17 16 20 22 18 16 14 12 8 6 6 2 2 4 8 9 9 13 15 12 11 10 6 3 1 2 2
35 35 35 36 36 35 34 32 31 30 29 29 28 27 26 25 26 25 23 22 24 25 22 21 20 17 20 25 24 20 18 16 16 18 17 17 18 16 15 16 14 13 12 14 14 13 10 5 4 8 14 19 21 22 21 21 22 20 20 20 21 20 20 22 23 20 19 17 13 12 13 11 7 5 7 9 9 9 13 15 13 12 11 7 4 2 3 3
36 36 36 37 37 38 37 36 35 34 33 32 31 30 29 28 28 27 24 21 23 26 23 22 22 18 21 28 27 22 18 15 15 18 19 18 18 17 17 17 16 15 17 18 15 12 7 1 1 6 13 19 22 23 23 23 25 25 22 21 21 21 25 28 26 23 23 20 16 16 16 14 12 12 13 12 10 11 14 15 12 10 12 10 7 4 4 3
39 38 37 38 38 39 39 38 38 37 36 36 35 34 33 32 31 30 27 22 22 27 25 24 25 21 22 29 30 25 18 16 18 20 21 20 18 19 19 18 17 19 20 18 15 14 9 3 5 10 13 18 21 23 24 25 28 27 24 22 19 23 30 30 27 26 26 22 19 18 18 17 17 18 18 14 12 13 14 13 9 7 10 11 9 6 4 3
41 40 40 39 39 40 41 40 40 39 38 38 37 37 36 35 34 33 31 26 22 24 28 28 25 21 24 31 33 28 20 18 21 21 21 20 19 21 20 18 20 20 19 18 16 16 12 8 11 14 15 17 20 23 25 26 28 27 25 22 18 26 32 29 28 29 27 24 22 21 21 21 20 20 17 12 12 14 13 11 6 6 10 10 10 8 5 4
44 44 43 42 41 42 43 42 41 40 40 39 38 38 38 38 38 35 34 33 25 22 28 32 28 24 26 32 31 28 26 20 20 23 23 21 21 22 21 21 21 19 18 19 20 18 15 14 16 17 16 16 18 22 25 26 27 27 25 19 19 28 32 30 31 31 29 27 24 23 24 22 20 19 16 14 14 11 11 9 4 6 9 7 7 10 8 5
47 47 46 45 44 43 45 45 43 42 41 41 39 39 40 39 40 38 36 37 30 25 29 34 32 29 29 30 27 29 30 19 20 29 27 23 24 24 24 23 21 18 18 21 21 18 16 18 19 18 17 16 17 18 20 24 27 26 21 18 23 31 33 33 34 34 33 30 26 26 26 24 22 20 16 16 14 11 10 9 6 7 7 4 3 7 10 7
50 50 49 49 47 45 46 47 45 44 43 42 41 40 41 41 40 39 38 40 35 28 31 35 35 32 32 32 29 31 29 20 25 32 26 24 27 26 26 25 22 20 20 23 20 13 16 20 20 19 17 17 15 13 15 22 24 19 17 22 29 33 33 33 35 37 35 30 29 30 29 28 27 21 15 15 15 14 12 10 9 8 5 4 4 4 9 10
52 53 52 52 51 49 47 48 48 47 45 44 43 42 42 42 42 41 40 42 39 31 32 35 36 35 35 35 32 31 28 25 30 32 28 29 30 28 28 26 24 22 23 25 19 14 19 22 20 21 20 18 13 9 14 21 16 12 20 26 31 35 34 33 37 39 35 33 35 33 31 32 28 21 16 18 20 19 16 14 12 8 5 5 5 3 5 9
54 55 54 53 54 53 50 50 49 49 49 47 46 45 44 44 44 42 43 44 41 34 33 35 37 37 37 37 35 33 31 29 31 32 33 34 30 28 27 27 28 27 26 27 22 20 24 23 21 23 20 17 14 13 17 18 9 13 24 27 30 37 36 36 40 39 37 39 38 33 33 35 28 21 20 21 19 18 20 17 13 8 6 7 7 5 3 6
55 56 56 55 55 55 54 53 51 50 52 52 50 48 47 46 46 45 46 45 41 37 34 35 38 39 39 38 37 36 34 33 34 35 35 33 31 30 28 29 32 30 30 30 25 24 26 25 23 21 18 17 18 18 20 17 11 18 29 30 33 38 39 41 42 42 44 44 38 32 33 37 31 21 21 21 12 13 17 17 15 10 8 9 9 8 5 5
55 56 58 58 57 56 56 56 54 52 52 54 54 52 51 50 49 49 48 45 41 40 38 37 40 42 41 38 37 37 37 36 36 37 37 35 34 34 31 32 33 32 32 29 23 23 27 27 23 19 18 19 21 22 22 20 18 24 32 32 35 38 41 45 45 46 49 42 34 32 35 39 33 18 19 21 14 14 16 16 15 11 10 11 11 9 8 7
55 56 57 59 59 58 56 56 57 56 54 55 56 55 54 53 53 52 49 46 44 44 42 42 43 43 41 40 38 37 38 39 39 38 38 36 36 35 32 31 31 32 30 24 20 24 27 25 22 21 21 22 24 24 23 22 21 26 30 34 38 39 42 47 47 49 47 38 33 35 38 41 34 18 18 23 17 16 16 15 14 12 11 12 11 10 10 10
56 56 57 59 60 60 58 56 57 59 56 56 58 58 57 57 56 53 50 49 48 47 46 46 46 43 42 41 39 38 39 40 41 41 41 39 39 38 34 33 33 33 29 24 25 28 27 26 26 25 22 23 25 24 23 21 20 23 25 31 36 37 40 44 45 45 41 35 34 36 41 45 36 20 17 21 18 16 16 15 15 13 13 13 11 10 12 13
57 57 57 60 61 61 60 57 57 59 59 57 58 60 60 60 58 55 54 53 51 50 50 50 48 47 45 43 42 42 41 40 41 43 43 42 42 41 39 38 37 36 32 30 31 31 30 30 28 24 21 22 23 21 21 21 23 24 24 28 34 36 39 39 38 39 35 33 37 40 44 45 34 19 16 21 21 19 17 16 16 16 15 15 13 13 14 16
58 58 59 60 62 62 62 60 58 59 61 60 59 61 62 61 59 58 58 56 53 52 52 51 51 50 49 47 46 45 44 43 43 45 45 46 45 43 41 40 39 37 35 33 32 30 32 29 25 24 24 24 24 21 21 26 27 26 27 32 32 31 36 39 38 38 36 36 39 42 43 40 32 24 22 25 26 23 20 17 17 18 16 17 16 15 15 15
60 60 61 62 63 64 64 64 61 60 61 62 62 63 62 61 61 60 60 58 56 55 54 53 52 53 52 50 49 48 48 48 48 49 49 48 48 46 44 43 41 40 38 36 34 33 35 29 23 28 30 28 26 24 25 29 28 28 33 32 26 24 33 41 40 38 40 41 38 39 40 37 34 31 26 28 29 27 24 20 18 17 17 20 19 16 14 15
62 62 63 63 64 65 65 66 66 64 63 64 65 64 63 62 62 62 62 61 60 59 57 55 55 56 56 54 53 51 51 51 51 52 52 51 51 50 48 45 43 43 41 40 39 38 39 33 28 31 32 27 27 29 32 32 30 32 33 27 23 28 35 40 42 41 43 44 37 35 38 37 35 31 26 28 30 29 28 25 21 19 19 22 19 15 14 14
64 64 65 65 65 66 67 67 68 68 67 66 66 65 64 64 63 63 64 64 63 62 60 58 58 58 58 58 57 55 54 54 54 54 54 53 54 53 51 49 48 48 45 44 44 42 42 41 37 34 32 29 30 36 38 38 35 33 30 26 29 34 35 37 41 40 41 42 36 33 35 34 31 27 24 27 30 30 30 29 26 23 22 21 17 14 15 14
67 67 68 67 66 66 67 68 68 69 70 68 67 66 66 66 65 65 66 66 66 66 64 63 61 61 61 60 59 58 58 57 56 56 56 56 56 56 54 53 54 54 52 51 50 47 44 44 41 37 35 34 36 42 44 40 37 34 34 35 36 36 34 35 37 37 37 39 36 33 31 25 21 23 23 26 28 29 31 30 27 25 24 21 18 16 15 13
69 69 70 69 67 66 67 69 69 69 70 70 68 68 68 68 68 67 68 69 69 69 69 67 65 64 64 63 62 62 62 61 59 59 59 59 59 58 57 56 56 56 55 54 53 48 45 47 45 40 39 41 44 48 45 39 36 36 38 39 39 38 37 37 38 37 36 37 35 34 30 18 12 16 20 22 24 26 29 29 28 27 25 22 20 18 16 14
74 73 73 71 69 68 67 68 69 70 70 70 70 70 70 70 71 70 70 71 72 72 72 72 70 68 66 66 66 66 65 65 64 62 62 62 62 61 60 59 58 56 55 54 52 50 51 54 51 45 45 49 49 46 43 39 37 38 39 39 38 40 40 40 41 38 35 36 33 33 33 22 13 13 15 18 21 21 24 26 28 30 27 23 21 19 17 15
77 75 75 75 73 71 69 68 69 70 69 70 71 71 71 71 72 73 73 73 74 75 75 75 74 72 70 69 69 69 69 68 68 67 66 65 64 64 63 62 61 59 57 57 56 56 57 57 56 52 51 49 46 43 42 42 40 41 42 41 40 41 43 44 41 34 32 34 33 34 36 27 17 15 15 16 18 18 20 23 28 30 27 23 21 19 18 17
73 72 74 76 75 72 69 68 69 70 70 71 72 72 72 72 73 74 75 76 76 77 77 78 78 77 75 74 73 73 72 71 71 70 70 69 67 67 66 65 64 62 60 60 60 59 58 58 59 57 54 50 46 45 45 45 45 47 48 46 45 45 45 43 38 32 33 36 34 37 37 28 18 15 16 16 16 18 21 23 28 29 27 25 23 22 22 21
65 64 67 71 73 70 65 64 66 68 69 70 70 71 72 72 74 75 76 77 78 79 80 80 80 80 79 78 77 76 76 74 73 73 73 72 71 69 68 68 67 65 63 62 62 61 61 61 61 60 57 55 52 51 52 52 51 52 51 49 49 47 44 42 39 38 41 41 38 39 38 32 22 15 15 17 16 17 21 22 24 27 28 28 26 24 24 24
56 54 55 60 65 63 58 58 61 62 64 66 66 68 70 71 73 75 76 78 79 80 81 82 82 82 82 82 81 80 79 78 77 76 76 75 74 72 71 70 70 69 67 66 65 64 64 64 63 62 61 60 59 58 57 55 54 55 54 52 51 49 46 44 43 45 47 44 41 40 37 33 28 18 15 17 18 19 21 21 20 23 26 28 28 26 26 25
48 47 45 46 53 53 49 50 53 54 57 60 62 64 67 69 72 74 76 77 79 81 81 82 83 84 85 85 84 83 82 81 80 80 79 78 76 75 73 72 72 72 70 69 68 67 67 66 64 64 64 64 63 62 59 55 55 56 55 54 53 50 48 46 46 50 49 45 43 42 37 36 35 26 18 17 19 21 21 20 20 20 22 26 28 28 27 28
43 43 39 36 39 42 40 40 44 48 51 56 58 61 64 66 69 72 75 76 79 81 81 82 84 85 86 87 86 86 85 84 83 82 82 81 79 78 76 74 74 74 73 72 71 71 70 68 66 66 67 66 66 65 61 58 58 57 54 54 53 50 49 49 52 52 49 47 46 41 38 39 38 34 26 19 19 23 22 21 21 20 21 25 30 31 31 31
37 36 34 29 27 30 32 32 36 42 47 51 55 58 61 63 65 68 71 74 76 78 78 80 82 84 85 87 88 88 87 86 85 85 85 84 82 80 78 76 75 75 75 75 74 74 73 72 69 69 69 68 66 65 61 59 59 58 55 54 53 51 51 52 53 51 49 50 48 39 37 40 38 36 31 22 20 23 23 22 23 23 24 27 30 33 34 34
31 28 27 25 21 21 25 26 29 35 40 44 49 53 56 60 63 65 66 68 69 72 75 76 78 81 83 85 87 88 87 86 86 86 86 86 85 83 80 78 77 77 77 76 76 77 76 74 73 72 72 69 67 66 62 58 58 58 57 55 54 53 52 52 52 51 50 50 46 41 42 43 38 35 32 26 22 22 22 25 27 27 27 27 28 31 33 33
26 23 22 22 18 15 17 20 23 27 31 34 38 42 44 48 54 59 60 62 62 64 68 71 72 75 78 81 85 86 86 86 86 86 86 87 87 85 82 80 80 79 78 77 78 78 78 77 75 75 75 72 68 67 65 60 58 59 60 58 56 54 53 53 52 51 51 50 46 44 46 45 39 35 33 30 26 24 25 28 29 29 29 29 29 31 32 32
23 21 20 18 15 13 13 15 18 21 24 28 31 34 35 37 42 47 51 54 57 58 61 64 67 70 72 75 79 82 84 86 86 85 86 87 88 88 85 83 82 81 80 79 79 80 80 79 77 77 77 74 69 68 68 63 59 60 62 63 62 60 57 56 53 52 53 51 46 46 49 46 39 36 34 31 29 28 28 29 30 31 31 32 32 33 34 34
21 20 18 15 13 13 13 13 15 17 19 23 27 30 33 34 36 39 40 44 48 51 53 56 60 64 67 69 72 77 82 85 86 86 86 87 88 90 89 85 83 83 81 80 80 80 81 80 78 78 79 76 70 68 69 66 62 62 64 64 64 63 61 57 54 53 53 51 49 50 50 44 38 38 36 33 31 30 29 30 31 32 32 33 35 37 36 36
Wind_Direction
290 293 295 294 294 293 293 292 293 294 294 296 299 300 305 311 321 328 332 329 315 298 286 283 283 280 270 252 241 237 239 242 241 241 240 238 230 222 211 210 211 209 213 209 204 206 204 206 202 195 194 196 201 203 201 201 196 203 215 228 255 272 340 31 33 30 44 46 43 49 57 57 48 38 51 47 57 169 209 206 211 201 162 152 164 167 177 195
289 291 292 291 291 290 289 288 288 289 290 293 294 296 296 296 300 308 318 324 321 315 297 285 281 279 277 269 251 238 234 236 239 240 238 232 230 225 213 214 212 206 205 202 204 206 208 212 207 198 195 194 197 198 199 200 200 203 205 218 234 234 310 21 30 28 37 40 36 36 50 52 31 26 46 48 51 133 211 214 219 217 189 171 178 182 181 193
288 290 290 290 289 289 288 287 287 286 287 288 290 292 292 291 289 288 294 304 311 314 311 299 283 279 277 275 266 247 235 232 234 238 236 227 233 236 224 224 220 211 204 200 204 203 208 212 204 199 197 193 195 196 197 199 200 197 191 208 217 215 274 12 35 28 28 34 38 30 45 58 37 33 47 64 69 64 215 218 221 220 208 190 183 186 187 190
288 288 289 290 290 290 290 289 289 288 287 287 288 289 290 291 288 284 280 280 289 297 305 308 290 281 279 277 272 261 241 235 233 234 236 231 236 240 235 232 224 218 211 207 206 204 210 209 197 199 200 194 195 196 196 197 195 187 174 180 192 210 241 131 80 45 29 21 31 21 26 59 47 39 41 46 67 69 258 223 225 221 217 208 194 191 191 189
286 287 287 287 287 288 288 288 288 288 288 288 288 288 288 287 286 285 279 272 271 275 283 290 290 280 279 279 274 269 252 244 238 234 234 233 237 239 237 236 229 222 218 215 215 214 216 207 194 199 203 198 196 196 199 197 189 178 165 166 182 204 186 133 89 59 47 20 29 18 3 33 50 50 44 46 60 58 29 29 250 239 224 210 195 191 193 192
284 285 285 284 283 282 283 284 284 285 285 287 288 287 286 284 283 281 279 273 266 264 265 266 269 270 278 279 278 279 269 257 249 241 237 235 237 238 235 237 235 229 223 220 223 223 219 207 193 195 205 202 196 197 200 198 185 173 173 179 185 196 185 139 95 62 54 38 41 19 353 8 46 66 56 42 40 26 24 356 260 246 224 201 189 188 193 198
283 282 282 282 281 279 278 277 278 277 278 281 284 284 283 281 280 278 276 272 266 263 259 256 255 258 265 273 281 288 282 267 255 250 245 238 238 240 238 238 239 237 229 224 224 226 220 206 192 194 205 202 201 205 200 199 186 172 185 189 185 197 197 145 112 77 44 36 36 11 357 1 27 71 75 50 23 357 354 357 255 228 217 186 179 190 195 200
282 281 281 280 279 277 275 273 272 271 272 275 278 279 279 279 277 276 274 271 268 263 260 256 252 253 258 266 276 283 282 278 264 250 244 238 235 238 240 240 240 238 232 225 220 221 216 200 192 198 200 197 208 210 202 199 183 173 188 189 185 198 197 155 124 95 44 25 20 10 10 358 355 57 83 72 34 345 326 344 341 233 231 183 170 181 189 193
279 279 279 278 277 275 274 271 269 268 268 269 272 273 273 274 274 273 272 269 267 264 263 259 254 254 256 262 265 272 280 284 281 252 232 234 230 231 235 238 240 237 233 228 221 219 212 194 194 198 194 201 211 210 205 196 180 182 193 196 195 198 192 170 141 114 67 2 9 8 5 352 336 24 60 65 45 357 328 338 344 356 324 208 176 175 177 187
277 277 276 275 274 273 272 270 268 267 266 267 268 268 268 268 269 270 269 267 265 263 263 260 257 255 256 261 260 262 270 272 282 276 237 226 231 231 230 232 235 236 234 232 227 219 205 195 196 197 197 204 209 210 205 189 188 196 201 207 212 209 203 191 167 146 148 264 359 357 343 344 338 357 29 55 50 9 334 332 338 345 346 206 183 177 180 194
278 276 274 273 272 271 269 268 267 266 266 266 265 264 263 263 264 266 266 264 263 261 261 260 259 256 256 259 257 256 260 264 276 281 272 232 225 232 235 233 231 232 232 233 231 214 202 199 201 202 202 205 207 210 201 186 197 205 205 211 220 222 220 211 190 170 165 167 7 339 315 338 2 329 350 52 59 20 335 326 332 328 329 304 181 184 189 197
278 277 275 273 271 270 268 267 266 266 265 264 263 263 261 261 261 262 262 259 260 260 258 258 258 259 257 257 259 256 253 260 263 263 273 267 236 228 236 241 237 232 228 230 230 216 206 205 211 209 206 207 207 209 201 194 204 209 208 210 217 226 227 219 203 188 176 163 168 296 285 313 11 324 353 46 57 36 340 320 322 316 313 326 168 191 197 192
278 277 276 275 273 271 269 268 267 267 265 263 262 262 261 262 260 259 258 254 254 257 257 256 257 257 257 257 258 252 248 254 254 251 258 266 257 238 234 241 242 236 227 226 226 223 216 215 218 209 207 212 209 211 208 204 211 215 214 213 217 228 234 230 218 203 187 170 184 252 276 324 27 4 13 37 46 31 346 315 311 310 304 313 14 184 195 189
277 276 275 274 274 273 272 270 269 267 266 263 262 261 262 262 259 257 255 252 249 251 255 256 255 258 261 262 258 253 246 242 246 247 245 248 252 250 242 240 243 240 230 224 226 229 228 227 221 207 209 212 208 213 213 211 217 220 221 220 220 229 236 234 225 211 192 177 180 208 276 42 36 10 6 18 30 13 341 306 300 306 305 303 355 117 188 192
277 276 274 273 272 272 272 272 271 268 265 263 262 262 262 262 259 255 253 251 247 247 247 249 253 258 265 268 258 249 242 239 246 249 246 243 243 247 243 240 243 241 234 227 227 232 234 234 228 216 212 209 210 215 212 214 220 221 224 224 224 231 234 233 228 213 184 179 174 144 100 66 41 15 13 8 10 2 343 312 294 303 311 309 10 27 176 196
276 275 274 272 271 270 270 270 270 269 266 264 264 262 261 261 259 256 253 250 246 245 241 241 247 253 262 266 253 248 249 251 253 249 249 247 240 244 246 242 245 246 244 236 231 234 236 238 235 225 216 211 217 218 213 218 219 216 221 221 226 232 229 227 223 202 176 178 157 102 89 72 51 27 23 10 4 0 348 326 298 303 316 332 35 24 77 191
273 273 273 271 269 268 267 267 267 267 265 264 265 262 261 259 258 256 254 251 249 247 243 240 242 246 255 259 252 251 257 261 256 242 251 257 246 243 249 246 246 247 248 244 237 237 239 240 237 232 225 220 221 221 219 227 223 211 204 196 215 226 219 216 209 193 181 174 152 121 100 77 56 33 26 18 13 5 354 334 306 306 312 319 60 37 25 187
272 271 271 270 269 267 265 264 265 265 263 263 264 263 261 258 256 255 252 252 252 249 245 242 241 243 250 256 252 246 249 256 252 237 241 252 248 239 244 247 247 250 253 253 249 245 244 242 239 234 231 226 224 227 226 219 214 208 196 191 210 217 212 210 205 196 186 179 197 209 128 77 56 35 24 14 3 354 353 340 313 303 302 301 59 86 26 161
270 269 269 269 268 267 264 261 261 262 262 262 261 262 262 258 255 253 251 252 252 249 245 243 243 243 245 251 252 247 245 249 253 244 232 242 248 243 244 247 247 249 253 258 257 252 246 241 237 234 233 230 229 236 231 201 205 205 199 201 209 211 203 202 203 199 195 193 193 191 168 117 55 34 14 353 340 336 343 341 319 294 288 287 263 168 174 158
269 269 268 267 266 265 264 261 259 258 260 261 260 259 260 259 256 253 251 251 251 248 246 244 242 243 246 249 252 251 245 245 252 253 240 241 247 247 246 248 247 246 250 255 252 249 249 247 243 237 237 234 232 236 230 218 218 212 206 203 206 206 192 195 202 199 205 203 184 193 230 229 228 349 325 316 320 326 330 336 324 288 279 280 265 208 218 197
268 268 267 267 266 264 263 261 260 257 257 258 259 258 257 257 255 254 252 251 253 249 246 247 242 241 248 250 249 248 247 246 249 254 250 244 245 245 245 247 248 249 249 246 244 247 254 275 274 236 232 230 229 230 226 220 221 222 216 206 206 201 185 191 199 199 212 211 199 219 232 225 229 262 279 280 292 316 320 329 324 283 271 275 272 249 232 209
267 267 266 266 266 265 263 262 261 259 257 257 258 258 257 255 254 252 249 249 255 253 246 245 243 236 243 250 251 247 249 251 245 249 251 247 247 246 242 242 241 243 244 242 245 252 256 337 303 228 222 224 224 225 223 218 219 224 220 213 209 192 182 190 192 200 215 214 213 226 229 225 229 245 258 259 268 295 305 319 320 275 261 269 271 266 242 217
266 265 265 265 265 265 264 263 262 260 259 258 257 257 256 255 254 253 249 241 246 256 253 243 240 236 240 251 252 246 244 246 244 247 250 248 248 246 243 241 236 235 240 242 246 248 241 236 242 230 221 222 223 223 224 217 217 221 220 220 209 183 185 189 187 200 214 211 214 224 229 228 225 233 240 241 256 277 289 305 310 254 245 260 266 267 253 235
265 264 263 263 263 263 263 263 262 261 260 260 258 257 256 255 254 254 253 244 231 245 259 252 241 235 238 247 250 248 244 243 249 252 251 251 248 246 246 244 239 235 237 241 241 239 234 232 238 235 227 224 222 222 224 222 221 221 219 220 206 187 189 188 187 202 213 214 218 224 231 232 228 227 224 227 250 261 270 284 289 228 228 251 271 276 262 235
264 263 263 262 262 262 262 261 260 260 260 260 259 258 257 256 256 254 254 252 234 228 251 257 251 239 236 244 251 254 250 242 249 252 247 247 246 246 245 243 243 239 236 240 240 237 233 232 236 238 237 233 229 225 225 225 225 225 222 217 199 192 192 191 195 206 215 220 226 232 235 239 241 233 218 222 234 239 252 259 246 210 219 241 277 281 272 246
264 263 263 262 261 261 262 260 259 259 259 259 258 258 257 256 256 255 254 254 244 231 241 251 254 247 241 244 247 250 250 242 243 246 243 246 247 248 247 246 246 242 237 240 241 239 234 234 236 238 240 241 240 237 230 227 228 228 224 209 193 193 196 196 200 210 217 220 226 235 237 238 243 236 220 223 223 220 233 230 196 191 202 210 246 271 273 265
264 263 262 262 260 259 260 260 259 258 257 258 257 256 257 257 256 256 255 254 249 239 238 244 250 250 247 248 245 247 249 242 242 246 246 247 247 247 248 249 248 245 243 243 244 245 238 235 236 238 241 240 245 252 238 232 232 224 213 205 193 192 199 200 203 214 220 220 222 230 234 235 239 238 228 226 223 215 208 187 165 167 178 195 202 246 268 269
264 263 262 262 260 258 258 259 258 258 257 257 257 255 255 256 256 255 254 254 251 243 239 242 246 246 247 248 246 246 246 239 241 246 245 242 241 242 244 246 246 242 242 243 240 238 239 236 233 236 238 235 240 251 241 240 237 203 203 208 195 191 198 200 205 214 219 222 223 224 230 236 240 242 238 232 220 201 174 157 157 162 172 189 189 203 259 272
265 263 261 261 260 259 257 256 256 258 258 256 256 255 253 254 254 254 253 252 251 247 241 242 244 244 243 245 245 246 243 238 239 242 242 242 242 242 243 244 243 238 238 241 234 228 237 238 233 235 238 233 230 230 233 240 225 185 203 210 199 196 198 199 205 211 216 226 229 223 228 238 242 238 237 238 220 178 153 154 167 176 189 185 180 187 218 275
268 265 262 260 260 259 258 256 254 255 258 257 255 254 253 252 252 252 251 250 251 250 243 240 242 243 242 241 241 242 242 239 238 239 240 242 241 239 237 237 239 238 237 239 234 228 235 237 236 239 239 232 226 224 227 227 200 194 207 207 201 202 202 202 207 208 215 231 237 224 224 237 243 236 235 244 227 169 163 173 180 186 194 190 185 191 211 255
270 268 265 262 260 259 258 258 254 252 254 256 255 254 252 251 250 250 249 250 251 250 245 240 240 242 243 242 240 240 240 238 237 238 238 239 239 238 235 236 239 240 239 239 239 236 238 240 243 244 237 232 229 226 227 221 202 204 210 208 206 205 204 208 209 210 221 239 245 225 219 233 243 237 231 243 237 204 196 188 188 198 203 196 190 195 215 232
271 270 268 265 262 260 259 259 257 254 252 253 254 253 252 251 249 248 249 250 250 249 247 244 242 242 244 244 243 241 241 241 240 238 237 236 238 239 238 240 243 244 244 243 244 244 245 247 247 243 236 235 234 231 231 227 215 213 213 212 213 209 208 212 213 216 230 248 246 226 218 231 247 250 234 241 241 226 216 202 202 214 218 206 193 200 217 224
270 270 269 267 264 261 261 261 259 257 255 252 252 252 252 251 249 248 248 249 249 248 247 247 245 245 244 245 245 243 241 242 243 243 241 238 237 237 235 236 238 239 239 236 235 238 240 241 240 239 237 238 239 237 237 239 237 234 227 221 222 221 221 222 219 224 240 253 246 229 220 233 251 260 242 244 247 241 235 226 221 224 226 216 202 209 220 218
269 268 267 266 265 263 262 261 260 259 258 256 252 251 251 250 249 248 248 248 247 247 247 247 247 246 245 244 244 243 241 240 242 245 246 244 241 239 236 236 238 239 238 233 232 234 236 237 238 242 243 244 246 244 244 246 244 245 241 232 231 232 235 236 232 234 246 252 245 232 226 238 256 264 253 249 249 248 245 238 234 232 227 218 212 218 224 218
268 267 265 264 264 263 262 261 260 259 259 258 255 253 251 249 250 249 248 248 247 246 247 248 248 248 246 243 242 242 242 241 240 241 243 244 244 242 240 240 241 242 241 239 238 240 241 240 240 243 241 238 239 235 236 240 238 238 236 233 235 237 239 240 238 238 242 246 246 239 237 248 261 264 258 249 247 250 250 245 241 238 227 218 218 223 229 227
266 266 264 263 262 261 261 260 259 258 257 257 257 255 253 251 251 251 249 248 247 246 245 246 246 247 246 244 241 241 241 240 239 239 239 241 242 242 240 239 239 240 242 242 242 242 243 241 237 242 241 237 237 232 229 233 234 235 235 235 241 242 237 239 240 238 238 243 249 247 247 254 258 258 255 248 246 248 249 250 247 239 228 223 224 227 233 236
266 266 265 263 260 259 259 258 258 256 255 255 256 255 254 253 253 252 251 249 247 245 244 243 243 244 244 243 241 239 238 238 239 240 240 239 239 238 237 235 236 238 239 239 239 238 240 235 228 234 239 236 237 236 231 228 226 230 235 238 241 236 231 235 239 237 235 242 251 250 250 253 254 254 253 248 246 245 247 251 249 244 236 230 228 232 236 236
267 267 266 264 261 259 258 257 256 255 254 253 254 254 253 252 252 252 251 250 248 246 244 242 241 242 242 242 241 239 238 238 238 238 239 239 238 237 235 233 232 232 233 234 234 234 236 235 226 226 230 228 229 233 232 228 224 225 229 231 232 232 231 233 239 239 237 243 251 251 250 254 256 258 257 251 248 245 246 249 250 249 244 238 235 237 239 237
269 269 267 264 261 260 258 256 255 254 253 252 251 251 250 250 249 248 249 249 249 247 245 242 240 240 240 241 240 239 238 238 237 237 238 237 237 238 238 236 233 232 231 231 231 230 231 234 228 223 225 223 225 231 231 229 227 225 224 225 227 231 233 234 241 247 245 246 253 255 256 258 260 265 266 261 255 250 247 248 251 252 247 243 242 240 241 239
272 271 270 265 261 261 259 256 254 253 252 251 249 248 247 247 246 245 245 246 246 246 246 243 240 238 238 239 239 238 238 237 236 236 237 236 237 238 238 237 237 236 234 233 232 229 228 231 227 220 222 224 226 231 233 232 231 229 228 229 229 231 232 231 236 242 243 246 251 254 257 261 260 265 269 268 262 254 250 249 249 249 243 237 238 240 240 236
276 275 273 267 264 263 261 258 255 253 251 250 248 246 245 244 244 242 241 241 242 244 244 244 241 238 236 236 237 237 237 237 235 234 234 235 236 237 238 237 237 236 236 234 232 228 227 230 227 219 220 226 227 230 234 234 233 233 234 234 235 237 237 234 235 237 241 248 253 257 264 268 258 250 256 262 262 257 252 247 242 242 239 230 231 240 240 233
278 277 274 270 267 266 263 260 256 253 252 250 247 245 244 243 242 241 239 239 239 240 241 242 242 240 237 234 234 236 236 235 235 233 233 233 234 236 237 237 237 235 234 233 232 231 231 233 232 225 221 224 226 226 230 232 231 232 232 231 232 235 237 238 240 243 249 256 260 262 266 265 250 237 237 246 253 251 246 238 233 235 236 227 225 237 239 231
279 277 275 271 268 266 264 262 258 255 252 250 248 246 243 242 240 239 238 237 237 237 237 238 239 239 237 234 232 233 233 233 233 233 233 233 232 233 235 236 237 236 234 233 232 233 234 235 235 230 223 221 222 221 223 226 227 229 229 228 227 229 234 239 244 247 250 252 254 256 258 255 244 232 231 235 242 244 240 230 226 228 227 221 219 228 232 229
281 278 276 272 268 266 265 262 259 256 253 250 248 246 244 241 239 238 237 236 235 234 234 235 236 236 235 234 232 230 230 230 231 232 233 232 232 232 232 233 235 235 234 233 232 232 233 233 233 233 228 223 221 221 222 222 222 225 227 228 228 227 229 233 237 239 241 242 244 247 249 250 246 230 221 231 237 242 244 237 228 224 220 217 218 222 228 230
285 283 281 276 271 267 265 262 258 255 252 249 246 244 243 240 239 237 236 235 234 233 232 233 234 234 234 233 231 229 228 227 228 229 231 231 231 231 230 231 233 233 232 233 232 232 232 232 232 233 231 227 224 222 222 221 221 225 227 227 229 229 228 229 233 237 239 239 240 243 247 252 253 236 215 228 235 238 247 248 238 229 223 219 218 220 225 230
293 291 289 284 277 272 267 261 256 252 248 246 243 241 240 238 237 236 235 234 233 232 231 231 231 231 232 231 231 229 228 226 225 227 228 229 229 230 229 229 230 232 231 232 232 232 233 232 231 232 232 231 229 226 223 221 223 228 230 229 229 230 230 231 233 237 241 242 242 244 248 254 256 247 226 227 238 242 249 255 251 243 233 224 219 219 224 231
303 301 298 291 283 276 269 259 252 246 242 240 238 237 237 236 235 235 234 233 233 231 230 230 230 229 230 231 230 229 228 226 224 224 225 226 227 228 228 227 227 229 230 230 231 232 233 233 230 231 233 233 232 229 224 221 223 227 229 231 231 231 230 232 235 237 240 242 242 242 246 252 256 256 246 233 236 243 247 252 252 245 233 223 219 219 224 230
309 308 304 298 286 275 268 258 247 241 237 235 233 232 233 233 233 233 232 232 233 232 230 230 229 229 229 230 230 229 228 226 225 223 222 223 224 225 226 225 225 226 228 229 230 231 233 233 231 232 234 234 233 231 226 222 224 224 224 228 231 231 231 233 238 240 240 242 243 243 246 250 253 258 256 244 234 238 243 246 242 234 226 224 223 224 227 230
314 312 310 306 293 273 266 260 248 240 236 234 231 230 231 231 232 232 232 231 233 233 231 230 230 229 228 229 229 229 228 227 225 223 221 221 221 222 223 222 222 223 224 226 228 230 231 232 232 233 234 234 233 232 228 223 223 223 222 224 227 230 232 234 238 241 242 245 246 246 246 247 248 252 255 251 238 231 233 239 237 229 226 228 229 228 231 233
316 315 314 312 301 278 266 263 256 246 240 236 234 233 233 233 233 234 233 232 232 233 233 232 230 229 229 229 229 229 228 227 225 224 222 220 218 219 219 219 220 220 220 222 225 229 230 230 231 233 235 234 232 231 229 223 221 223 223 223 224 226 230 233 235 238 241 243 244 245 246 246 245 247 251 253 246 233 226 232 237 234 230 231 230 229 232 234
315 314 315 311 300 287 276 268 261 254 246 241 237 236 237 238 236 235 235 235 233 233 235 235 232 230 229 229 230 230 229 227 226 225 223 220 217 216 216 217 217 217 217 218 222 226 228 229 229 231 234 233 231 230 230 226 223 223 225 227 228 227 227 230 231 233 237 239 240 241 243 244 245 247 249 251 249 239 227 227 235 239 237 233 229 228 230 232
312 313 313 312 300 290 287 278 265 257 252 248 244 241 242 244 243 239 238 238 237 235 235 237 237 234 231 230 230 230 230 228 226 225 224 222 218 215 214 215 215 215 215 215 218 222 226 227 226 228 232 232 229 228 230 228 223 224 230 233 232 230 229 228 229 231 234 237 237 239 242 244 245 247 248 247 246 242 234 228 231 236 238 235 229 226 228 230
Height
5896 5895 5895 5894 5893 5893 5892 5891 5891 5890 5889 5889 5888 5888 5887 5886 5885 5885 5884 5884 5883 5882 5881 5881 5880 5880 5880 5880 5880 5880 5880 5881 5881 5881 5881 5881 5882 5882 5882 5882 5883 5884 5885 5886 5887 5888 5889 5890 5891 5892 5892 5893 5893 5894 5894 5894 5894 5894 5894 5895 5895 5896 5896 5896 5895 5895 5896 5897 5896 5896 5895 5896 5896 5897 5897 5896 5896 5896 5896 5897 5898 5898 5898 5899 5900 5901 5902 5903
5895 5894 5894 5893 5892 5892 5891 5890 5890 5889 5888 5888 5887 5887 5886 5885 5885 5884 5884 5883 5882 5882 5881 5880 5880 5879 5879 5879 5879 5879 5879 5879 5879 5879 5880 5881 5881 5881 5881 5881 5882 5883 5884 5885 5886 5887 5888 5888 5889 5890 5891 5892 5892 5893 5894 5894 5894 5894 5894 5894 5895 5895 5896 5895 5895 5895 5896 5897 5898 5897 5897 5897 5897 5897 5897 5896 5896 5895 5896 5897 5898 5898 5898 5899 5900 5901 5901 5902
5893 5893 5892 5892 5891 5890 5890 5889 5889 5888 5887 5887 5886 5886 5885 5885 5884 5884 5883 5882 5882 5881 5881 5880 5879 5878 5878 5878 5878 5878 5878 5878 5878 5878 5879 5880 5879 5880 5880 5881 5882 5882 5883 5883 5883 5884 5885 5884 5886 5888 5889 5890 5891 5892 5893 5894 5894 5894 5894 5894 5895 5895 5895 5895 5895 5895 5896 5898 5899 5898 5899 5898 5898 5898 5897 5896 5896 5896 5896 5897 5898 5898 5899 5899 5900 5900 5901 5902
5892 5891 5891 5890 5890 5889 5889 5888 5887 5887 5886 5886 5885 5885 5884 5884 5883 5883 5882 5882 5881 5881 5880 5880 5879 5878 5877 5877 5877 5877 5877 5876 5876 5877 5878 5878 5878 5879 5880 5880 5881 5881 5882 5882 5881 5882 5881 5882 5885 5887 5888 5889 5890 5891 5892 5893 5893 5893 5893 5894 5895 5895 5895 5895 5895 5895 5897 5898 5898 5898 5900 5899 5898 5898 5897 5896 5897 5897 5897 5898 5898 5899 5899 5899 5899 5900 5901 5901
5890 5890 5889 5889 5888 5888 5887 5886 5886 5885 5885 5884 5884 5883 5883 5883 5882 5882 5881 5881 5881 5880 5879 5879 5878 5878 5876 5876 5875 5875 5876 5875 5875 5876 5876 5877 5877 5878 5879 5879 5879 5880 5880 5881 5881 5881 5881 5883 5885 5887 5888 5889 5890 5891 5891 5892 5892 5892 5893 5894 5895 5895 5895 5894 5894 5894 5896 5897 5896 5897 5899 5899 5899 5898 5897 5897 5897 5898 5898 5899 5899 5899 5899 5898 5899 5899 5900 5901
5889 5888 5888 5887 5886 5886 5885 5885 5884 5884 5883 5883 5882 5882 5882 5881 5881 5881 5880 5880 5880 5879 5879 5878 5878 5877 5876 5875 5874 5875 5875 5874 5874 5875 5875 5876 5876 5877 5878 5878 5878 5879 5880 5880 5881 5881 5882 5883 5885 5887 5888 5889 5890 5890 5890 5890 5891 5892 5893 5894 5894 5895 5895 5893 5892 5892 5894 5896 5896 5897 5898 5899 5899 5898 5897 5898 5898 5899 5900 5899 5899 5899 5899 5898 5898 5898 5899 5900
5888 5887 5886 5886 5885 5884 5884 5883 5883 5882 5882 5881 5881 5881 5880 5880 5880 5879 5879 5879 5878 5878 5877 5877 5877 5876 5875 5874 5874 5874 5873 5873 5873 5873 5874 5875 5875 5875 5876 5877 5877 5878 5879 5880 5880 5881 5882 5883 5885 5886 5887 5888 5889 5888 5889 5890 5890 5891 5892 5893 5893 5894 5894 5892 5891 5891 5892 5894 5896 5897 5897 5898 5899 5899 5898 5899 5899 5900 5900 5900 5899 5899 5898 5898 5897 5898 5898 5899
5886 5885 5885 5884 5883 5883 5882 5882 5881 5881 5880 5880 5879 5879 5879 5879 5878 5878 5878 5877 5877 5877 5876 5876 5876 5875 5875 5874 5873 5873 5872 5872 5872 5872 5872 5873 5873 5874 5875 5876 5876 5877 5878 5878 5879 5880 5881 5883 5884 5885 5886 5888 5887 5887 5888 5888 5889 5891 5892 5892 5892 5892 5893 5892 5891 5891 5892 5893 5895 5895 5895 5896 5898 5900 5899 5899 5900 5900 5900 5900 5899 5898 5898 5897 5897 5897 5898 5898
5883 5883 5883 5882 5882 5881 5881 5880 5880 5879 5878 5878 5877 5877 5877 5877 5877 5877 5876 5876 5876 5875 5875 5875 5874 5874 5874 5873 5873 5872 5872 5871 5871 5871 5871 5871 5871 5872 5873 5874 5875 5876 5877 5877 5878 5879 5881 5882 5883 5884 5886 5885 5884 5885 5886 5888 5889 5889 5890 5890 5890 5890 5891 5890 5890 5891 5892 5892 5893 5894 5894 5895 5897 5900 5899 5898 5899 5899 5899 5899 5898 5897 5897 5897 5897 5897 5897 5897
5881 5881 5880 5880 5879 5879 5879 5878 5878 5877 5877 5876 5875 5875 5875 5875 5875 5875 5875 5875 5874 5874 5873 5873 5873 5873 5873 5872 5872 5871 5871 5870 5870 5870 5870 5870 5870 5870 5871 5872 5873 5874 5875 5876 5877 5879 5880 5881 5881 5882 5882 5881 5882 5883 5885 5888 5888 5887 5888 5889 5889 5889 5889 5888 5888 5889 5890 5891 5892 5893 5893 5894 5896 5899 5900 5899 5898 5898 5898 5899 5898 5897 5897 5897 5897 5896 5897 5897
5879 5878 5878 5877 5877 5877 5876 5876 5876 5875 5874 5874 5873 5873 5873 5873 5873 5873 5873 5873 5873 5872 5872 5872 5872 5871 5871 5871 5870 5870 5870 5870 5869 5869 5868 5869 5869 5869 5869 5870 5871 5872 5874 5875 5876 5877 5878 5879 5878 5877 5878 5879 5881 5882 5885 5886 5885 5885 5886 5887 5889 5889 5888 5887 5887 5887 5888 5890 5891 5892 5892 5892 5895 5898 5900 5899 5898 5898 5898 5898 5898 5898 5897 5896 5896 5896 5896 5896
5876 5876 5875 5875 5874 5874 5874 5873 5873 5873 5872 5871 5871 5871 5871 5871 5871 5871 5871 5871 5871 5871 5871 5870 5870 5870 5870 5869 5869 5869 5869 5869 5868 5867 5867 5867 5868 5868 5868 5868 5869 5871 5872 5873 5874 5875 5875 5876 5875 5876 5879 5880 5880 5881 5883 5883 5882 5883 5884 5886 5888 5888 5888 5887 5886 5886 5887 5888 5890 5891 5890 5891 5893 5896 5899 5899 5897 5898 5898 5898 5897 5898 5897 5896 5895 5895 5895 5895
5874 5873 5873 5872 5872 5871 5871 5871 5870 5870 5869 5868 5868 5868 5869 5869 5870 5869 5869 5869 5869 5869 5869 5869 5869 5868 5868 5867 5868 5868 5868 5867 5867 5866 5866 5866 5866 5866 5866 5867 5868 5869 5870 5871 5872 5872 5872 5873 5874 5877 5879 5878 5880 5880 5881 5881 5880 5881 5883 5885 5887 5888 5889 5887 5886 5886 5886 5888 5889 5890 5890 5890 5892 5895 5897 5898 5897 5898 5898 5898 5897 5897 5897 5895 5894 5893 5894 5894
5872 5871 5870 5870 5869 5869 5868 5868 5868 5867 5866 5865 5865 5866 5867 5867 5867 5867 5867 5867 5868 5867 5868 5867 5867 5867 5866 5866 5867 5866 5866 5866 5865 5865 5866 5865 5865 5865 5865 5865 5866 5867 5868 5869 5870 5870 5870 5871 5872 5875 5875 5876 5879 5878 5878 5879 5879 5881 5882 5883 5886 5889 5889 5887 5886 5886 5887 5888 5888 5889 5889 5889 5891 5894 5896 5897 5897 5897 5898 5897 5896 5896 5897 5895 5893 5893 5893 5894
5870 5869 5868 5867 5866 5866 5866 5866 5865 5864 5863 5862 5863 5863 5864 5864 5864 5865 5865 5865 5866 5866 5866 5866 5865 5865 5864 5864 5865 5865 5865 5864 5863 5864 5864 5864 5864 5864 5864 5864 5864 5865 5866 5867 5867 5868 5868 5869 5870 5872 5873 5876 5876 5874 5876 5877 5877 5879 5880 5881 5885 5888 5888 5887 5886 5886 5887 5888 5887 5888 5888 5889 5891 5893 5895 5896 5897 5897 5898 5897 5896 5896 5896 5895 5893 5892 5892 5893
5867 5866 5865 5865 5864 5863 5863 5863 5863 5861 5860 5860 5860 5860 5861 5861 5861 5862 5862 5863 5864 5863 5864 5863 5863 5863 5862 5863 5863 5863 5862 5862 5862 5863 5862 5862 5863 5862 5863 5863 5863 5863 5863 5864 5865 5865 5866 5867 5869 5870 5872 5873 5872 5873 5875 5875 5875 5877 5879 5881 5884 5885 5886 5885 5885 5885 5886 5886 5886 5887 5887 5888 5890 5892 5894 5895 5896 5898 5898 5897 5896 5895 5895 5894 5892 5891 5892 5893
5864 5864 5863 5862 5861 5861 5860 5860 5860 5858 5857 5857 5858 5857 5858 5858 5858 5858 5859 5860 5861 5861 5861 5861 5860 5860 5860 5860 5861 5861 5861 5861 5862 5862 5861 5860 5861 5861 5861 5862 5861 5861 5861 5861 5862 5863 5864 5866 5867 5868 5869 5870 5870 5871 5872 5873 5874 5877 5878 5880 5882 5883 5884 5884 5884 5884 5885 5886 5886 5886 5887 5888 5889 5891 5893 5895 5897 5898 5898 5897 5896 5895 5895 5894 5892 5891 5892 5893
5861 5861 5860 5859 5858 5858 5858 5857 5857 5855 5854 5854 5855 5855 5855 5855 5855 5855 5856 5857 5858 5858 5858 5858 5858 5858 5858 5857 5858 5859 5859 5859 5859 5860 5860 5858 5859 5860 5860 5860 5860 5859 5859 5860 5861 5861 5862 5864 5865 5866 5866 5867 5868 5868 5871 5874 5875 5876 5877 5879 5880 5881 5882 5883 5883 5883 5883 5884 5884 5885 5885 5887 5888 5890 5892 5895 5896 5897 5898 5897 5896 5894 5894 5894 5892 5892 5892 5893
5858 5857 5856 5856 5855 5854 5854 5854 5854 5853 5851 5851 5852 5852 5852 5852 5852 5851 5852 5853 5854 5854 5855 5856 5856 5856 5855 5854 5854 5856 5857 5857 5857 5858 5859 5857 5857 5858 5858 5858 5859 5859 5859 5859 5860 5860 5860 5861 5862 5863 5864 5866 5867 5868 5871 5874 5873 5874 5875 5875 5877 5877 5879 5881 5881 5881 5881 5881 5882 5883 5884 5885 5887 5889 5891 5894 5896 5897 5897 5897 5896 5894 5894 5894 5892 5892 5892 5893
5854 5853 5852 5852 5851 5850 5850 5850 5850 5849 5848 5848 5848 5848 5848 5848 5848 5848 5850 5850 5850 5851 5852 5853 5853 5853 5852 5851 5851 5853 5854 5854 5855 5856 5857 5856 5856 5856 5856 5857 5857 5858 5858 5858 5858 5858 5858 5859 5860 5862 5864 5866 5867 5868 5870 5872 5871 5872 5872 5872 5874 5875 5877 5879 5879 5879 5880 5880 5880 5881 5882 5883 5885 5887 5890 5892 5894 5896 5897 5896 5896 5894 5894 5893 5893 5892 5892 5893
5850 5849 5848 5847 5847 5846 5846 5846 5846 5846 5845 5845 5845 5844 5844 5845 5844 5845 5846 5847 5847 5847 5849 5849 5850 5852 5850 5848 5848 5850 5851 5852 5853 5853 5854 5855 5854 5855 5855 5855 5856 5857 5857 5857 5856 5857 5857 5858 5859 5860 5862 5863 5864 5865 5867 5869 5869 5869 5870 5871 5872 5873 5875 5877 5878 5878 5878 5879 5879 5879 5879 5880 5882 5885 5888 5890 5892 5894 5895 5896 5895 5894 5894 5893 5893 5893 5893 5893
5845 5844 5844 5843 5842 5841 5841 5841 5841 5841 5841 5841 5841 5840 5840 5840 5840 5840 5842 5845 5844 5842 5845 5846 5846 5848 5847 5844 5844 5846 5849 5850 5850 5850 5851 5852 5852 5854 5854 5853 5854 5855 5854 5854 5855 5856 5857 5858 5858 5858 5859 5860 5861 5862 5864 5866 5866 5867 5868 5869 5869 5872 5874 5875 5876 5878 5877 5878 5879 5878 5878 5878 5880 5883 5885 5887 5890 5892 5894 5895 5895 5894 5894 5893 5893 5893 5893 5893
5840 5840 5839 5838 5838 5836 5836 5837 5837 5836 5836 5836 5836 5836 5835 5835 5835 5836 5838 5841 5842 5839 5840 5842 5842 5845 5844 5841 5840 5843 5847 5848 5847 5847 5848 5849 5851 5851 5851 5852 5852 5852 5852 5853 5854 5854 5855 5856 5856 5856 5856 5857 5858 5860 5861 5862 5863 5864 5866 5867 5869 5871 5871 5873 5875 5876 5875 5876 5877 5877 5876 5875 5876 5878 5881 5884 5887 5889 5891 5893 5894 5894 5893 5893 5892 5892 5893 5893
5834 5834 5834 5834 5833 5831 5831 5831 5832 5831 5831 5831 5832 5831 5830 5830 5830 5831 5832 5836 5839 5838 5835 5836 5838 5842 5841 5836 5835 5840 5845 5845 5844 5844 5845 5846 5848 5847 5848 5849 5849 5850 5851 5852 5852 5852 5853 5854 5854 5854 5854 5855 5856 5857 5858 5859 5860 5862 5864 5866 5869 5870 5870 5872 5874 5874 5873 5874 5874 5874 5873 5872 5872 5873 5877 5881 5884 5886 5888 5891 5892 5893 5893 5893 5892 5892 5893 5893
5828 5828 5828 5828 5828 5827 5825 5826 5826 5826 5826 5826 5826 5826 5825 5825 5825 5826 5827 5828 5834 5836 5832 5831 5833 5837 5836 5833 5834 5837 5839 5842 5842 5841 5841 5843 5844 5844 5845 5845 5845 5848 5849 5849 5849 5850 5851 5852 5851 5851 5852 5853 5854 5854 5855 5857 5859 5860 5862 5866 5869 5868 5869 5871 5872 5871 5871 5872 5872 5872 5871 5870 5870 5871 5874 5878 5880 5883 5886 5888 5890 5893 5893 5893 5893 5892 5892 5893
5821 5821 5822 5822 5822 5822 5820 5819 5820 5821 5821 5820 5821 5821 5820 5820 5820 5821 5823 5822 5827 5832 5830 5827 5828 5831 5831 5831 5833 5833 5833 5840 5839 5834 5837 5840 5839 5840 5841 5841 5843 5845 5847 5846 5846 5847 5849 5849 5848 5849 5850 5851 5851 5852 5854 5855 5856 5858 5862 5865 5866 5866 5867 5868 5870 5869 5868 5870 5871 5870 5868 5868 5867 5868 5871 5874 5876 5880 5883 5885 5888 5891 5892 5893 5893 5892 5892 5892
5814 5814 5814 5814 5815 5817 5815 5813 5814 5815 5815 5815 5816 5816 5815 5815 5815 5816 5817 5816 5820 5826 5825 5823 5823 5825 5827 5827 5829 5829 5831 5836 5833 5830 5835 5837 5835 5836 5837 5838 5841 5843 5843 5843 5843 5846 5846 5845 5846 5847 5848 5849 5850 5852 5853 5853 5855 5858 5862 5862 5862 5864 5866 5867 5868 5867 5866 5869 5868 5866 5866 5865 5863 5865 5868 5871 5873 5876 5879 5882 5886 5889 5891 5891 5891 5892 5891 5891
5805 5806 5807 5807 5807 5809 5809 5808 5807 5808 5809 5809 5809 5810 5810 5810 5809 5811 5812 5810 5813 5819 5820 5819 5819 5820 5821 5822 5824 5825 5827 5830 5828 5827 5831 5830 5830 5832 5834 5836 5837 5839 5839 5839 5841 5844 5842 5842 5844 5845 5845 5847 5849 5851 5852 5851 5854 5859 5860 5859 5860 5863 5864 5866 5866 5865 5866 5866 5862 5863 5864 5862 5861 5864 5866 5866 5868 5871 5875 5880 5884 5887 5889 5889 5890 5891 5891 5891
5797 5797 5798 5799 5798 5800 5802 5802 5802 5802 5801 5802 5803 5803 5804 5804 5804 5805 5805 5804 5807 5812 5814 5814 5813 5814 5815 5816 5818 5820 5821 5824 5824 5823 5824 5825 5827 5829 5831 5832 5832 5833 5835 5835 5839 5840 5839 5840 5841 5841 5843 5845 5847 5848 5848 5849 5854 5858 5857 5857 5860 5860 5860 5863 5862 5862 5864 5859 5855 5860 5862 5859 5859 5862 5863 5863 5866 5869 5872 5877 5881 5884 5886 5887 5888 5889 5890 5891
5788 5788 5789 5790 5790 5791 5793 5794 5797 5797 5794 5793 5795 5797 5797 5797 5798 5798 5797 5799 5803 5806 5808 5809 5808 5807 5809 5811 5813 5814 5816 5818 5818 5818 5819 5821 5823 5824 5827 5827 5826 5829 5830 5832 5835 5837 5836 5837 5838 5839 5842 5843 5844 5845 5845 5847 5852 5853 5852 5853 5856 5856 5858 5858 5857 5860 5858 5850 5850 5858 5860 5857 5856 5859 5860 5861 5866 5870 5871 5873 5878 5881 5884 5885 5886 5888 5889 5891
5780 5779 5779 5780 5781 5783 5785 5784 5787 5790 5787 5785 5787 5789 5790 5790 5791 5790 5791 5795 5798 5799 5802 5803 5801 5801 5803 5805 5808 5809 5810 5811 5812 5813 5814 5817 5818 5819 5822 5823 5823 5825 5826 5829 5834 5834 5833 5834 5836 5838 5840 5841 5841 5841 5842 5844 5847 5847 5847 5850 5851 5853 5854 5854 5853 5855 5849 5843 5848 5857 5859 5855 5852 5855 5859 5860 5865 5869 5869 5870 5874 5877 5881 5882 5884 5886 5888 5889
5772 5770 5770 5769 5771 5774 5776 5776 5776 5778 5780 5779 5778 5779 5781 5781 5782 5783 5787 5791 5791 5792 5795 5795 5795 5796 5798 5800 5803 5805 5806 5806 5807 5808 5810 5813 5813 5815 5819 5820 5820 5821 5823 5829 5832 5830 5829 5832 5834 5836 5837 5838 5838 5839 5840 5842 5843 5843 5844 5846 5846 5848 5848 5847 5847 5847 5842 5841 5848 5855 5856 5851 5847 5854 5860 5860 5863 5866 5867 5869 5871 5874 5877 5879 5881 5884 5886 5887
5763 5762 5761 5760 5761 5764 5766 5767 5767 5767 5769 5770 5770 5770 5771 5772 5774 5778 5781 5782 5783 5786 5787 5787 5789 5792 5793 5795 5797 5799 5801 5802 5802 5803 5804 5807 5808 5810 5813 5814 5815 5816 5820 5825 5825 5824 5826 5828 5829 5832 5834 5835 5835 5837 5839 5840 5842 5841 5842 5842 5841 5843 5842 5840 5843 5843 5842 5843 5847 5852 5852 5846 5845 5852 5858 5859 5862 5864 5865 5867 5869 5871 5874 5877 5879 5881 5883 5885
5753 5753 5752 5750 5751 5753 5755 5757 5758 5757 5757 5760 5761 5761 5761 5763 5768 5771 5772 5773 5776 5779 5779 5780 5782 5785 5787 5790 5791 5791 5794 5797 5798 5798 5798 5800 5802 5805 5808 5809 5810 5812 5816 5819 5819 5821 5822 5824 5827 5830 5832 5832 5833 5836 5838 5839 5839 5839 5841 5840 5838 5839 5838 5838 5842 5842 5842 5844 5845 5847 5846 5841 5844 5851 5855 5858 5860 5861 5863 5864 5866 5868 5872 5875 5876 5878 5880 5882
5744 5742 5741 5740 5742 5744 5744 5746 5748 5748 5747 5748 5751 5751 5752 5757 5760 5761 5763 5765 5769 5771 5771 5773 5775 5777 5779 5783 5784 5785 5788 5791 5791 5791 5792 5793 5796 5799 5803 5806 5807 5808 5811 5813 5816 5818 5818 5821 5826 5827 5827 5828 5829 5833 5835 5833 5834 5836 5836 5834 5834 5838 5839 5839 5840 5841 5842 5842 5841 5841 5840 5840 5844 5848 5852 5856 5857 5859 5861 5862 5864 5866 5869 5872 5873 5874 5877 5879
5733 5731 5729 5730 5731 5733 5733 5734 5737 5738 5738 5738 5738 5741 5746 5749 5750 5751 5753 5756 5759 5762 5764 5765 5767 5768 5769 5773 5776 5779 5782 5783 5782 5784 5786 5787 5789 5793 5797 5800 5802 5803 5805 5808 5812 5813 5813 5818 5824 5821 5821 5824 5826 5829 5829 5828 5831 5832 5830 5830 5835 5840 5840 5837 5837 5840 5840 5838 5836 5838 5838 5839 5842 5843 5847 5851 5854 5856 5859 5860 5863 5865 5867 5868 5870 5872 5874 5876
5721 5718 5716 5717 5720 5721 5723 5724 5724 5726 5728 5727 5728 5733 5737 5738 5739 5741 5742 5745 5749 5751 5754 5756 5758 5758 5760 5763 5767 5771 5773 5774 5775 5777 5779 5780 5781 5783 5787 5792 5796 5798 5800 5802 5804 5806 5807 5812 5816 5815 5816 5821 5823 5823 5822 5822 5825 5826 5826 5832 5836 5836 5835 5833 5833 5836 5836 5832 5832 5835 5836 5837 5838 5839 5843 5848 5850 5854 5856 5858 5861 5863 5864 5865 5867 5869 5871 5873
5708 5705 5702 5704 5708 5709 5711 5712 5712 5713 5715 5716 5720 5724 5726 5727 5730 5731 5731 5734 5738 5740 5743 5746 5748 5749 5751 5754 5758 5762 5765 5767 5768 5770 5771 5772 5771 5773 5779 5785 5788 5788 5790 5793 5795 5798 5800 5803 5808 5810 5812 5817 5817 5814 5813 5815 5820 5823 5826 5830 5830 5828 5829 5829 5828 5829 5830 5828 5829 5832 5834 5835 5835 5837 5841 5845 5848 5851 5854 5856 5858 5860 5862 5863 5864 5866 5868 5870
5693 5691 5687 5690 5696 5697 5697 5699 5699 5699 5701 5705 5709 5712 5713 5716 5719 5720 5720 5723 5726 5727 5730 5734 5738 5741 5743 5745 5749 5753 5756 5758 5760 5763 5764 5764 5762 5766 5773 5777 5777 5778 5781 5784 5785 5790 5793 5794 5800 5806 5807 5810 5809 5804 5805 5810 5817 5821 5822 5823 5822 5823 5825 5827 5825 5825 5828 5828 5828 5831 5832 5832 5835 5838 5840 5843 5845 5849 5851 5853 5856 5858 5860 5861 5862 5864 5866 5868
5676 5674 5670 5676 5683 5682 5681 5683 5685 5686 5687 5692 5696 5698 5701 5704 5706 5708 5709 5711 5713 5715 5717 5721 5727 5731 5733 5736 5739 5742 5746 5749 5752 5755 5756 5755 5756 5760 5765 5767 5769 5773 5777 5779 5781 5785 5786 5785 5791 5799 5801 5801 5799 5797 5801 5809 5814 5816 5816 5817 5818 5819 5820 5822 5821 5822 5825 5826 5826 5828 5828 5830 5836 5839 5840 5841 5843 5846 5848 5850 5853 5855 5857 5859 5860 5862 5864 5865
5659 5657 5654 5661 5667 5665 5666 5668 5669 5671 5673 5678 5681 5683 5687 5690 5692 5696 5697 5697 5700 5703 5706 5709 5714 5719 5724 5728 5729 5731 5735 5739 5742 5744 5746 5747 5750 5754 5757 5759 5762 5767 5771 5774 5775 5777 5777 5777 5783 5791 5793 5791 5793 5797 5802 5808 5810 5811 5812 5815 5817 5818 5818 5817 5816 5819 5822 5823 5824 5825 5824 5828 5836 5839 5839 5840 5841 5843 5845 5847 5850 5852 5854 5856 5858 5860 5862 5863
5641 5638 5637 5644 5647 5647 5649 5650 5652 5657 5659 5662 5665 5669 5673 5675 5678 5681 5682 5684 5689 5691 5694 5697 5702 5707 5712 5717 5720 5721 5725 5728 5731 5734 5736 5739 5742 5746 5749 5751 5755 5760 5763 5766 5766 5767 5771 5775 5777 5782 5785 5786 5791 5797 5800 5802 5805 5805 5805 5809 5813 5813 5812 5812 5814 5820 5823 5821 5822 5823 5819 5823 5832 5837 5837 5839 5839 5840 5841 5843 5845 5848 5851 5854 5856 5857 5859 5861
5624 5622 5620 5624 5628 5630 5631 5632 5636 5642 5644 5646 5651 5655 5658 5660 5663 5666 5668 5671 5675 5678 5681 5685 5689 5693 5699 5705 5709 5712 5715 5718 5720 5724 5727 5730 5734 5738 5742 5744 5748 5752 5755 5757 5760 5762 5767 5770 5769 5773 5780 5783 5786 5790 5792 5794 5796 5796 5796 5800 5804 5805 5808 5811 5815 5820 5819 5816 5819 5819 5815 5818 5828 5834 5836 5837 5837 5838 5838 5839 5841 5844 5847 5850 5852 5854 5855 5857
5609 5608 5606 5606 5609 5613 5615 5615 5620 5625 5627 5631 5637 5639 5641 5644 5648 5651 5654 5658 5661 5664 5668 5672 5676 5680 5686 5691 5696 5700 5705 5708 5710 5713 5716 5720 5725 5729 5733 5736 5740 5743 5745 5749 5753 5756 5760 5760 5760 5766 5774 5777 5779 5780 5781 5783 5785 5787 5789 5794 5797 5801 5805 5808 5811 5813 5810 5810 5814 5814 5811 5815 5824 5831 5833 5834 5835 5835 5835 5837 5838 5840 5843 5846 5848 5850 5852 5853
5595 5596 5594 5591 5592 5597 5600 5601 5605 5608 5611 5616 5621 5622 5626 5630 5633 5637 5640 5644 5647 5650 5655 5659 5664 5668 5672 5676 5681 5688 5693 5697 5699 5703 5706 5710 5714 5719 5724 5728 5732 5735 5737 5740 5744 5748 5751 5751 5754 5759 5764 5768 5771 5771 5773 5777 5779 5781 5785 5788 5792 5796 5800 5803 5806 5804 5802 5806 5810 5809 5810 5814 5820 5827 5831 5832 5833 5834 5833 5834 5836 5837 5839 5841 5844 5846 5849 5850
5584 5584 5585 5581 5579 5582 5586 5587 5591 5594 5596 5601 5605 5608 5611 5616 5618 5621 5626 5629 5631 5636 5643 5648 5651 5654 5657 5663 5669 5675 5681 5685 5689 5693 5696 5699 5703 5709 5715 5719 5723 5726 5728 5732 5736 5739 5742 5745 5748 5751 5755 5760 5764 5766 5769 5773 5775 5777 5781 5784 5787 5792 5796 5799 5800 5796 5797 5803 5806 5806 5811 5813 5815 5822 5828 5830 5831 5832 5832 5833 5834 5835 5836 5838 5840 5843 5846 5847
5577 5575 5575 5574 5571 5571 5573 5575 5579 5581 5583 5587 5591 5593 5597 5601 5603 5607 5612 5614 5616 5624 5631 5634 5635 5639 5645 5651 5657 5661 5667 5674 5679 5683 5686 5689 5693 5698 5704 5709 5713 5716 5720 5723 5727 5730 5734 5737 5740 5742 5747 5752 5756 5760 5765 5766 5767 5772 5777 5780 5784 5788 5792 5793 5790 5791 5796 5799 5799 5805 5811 5810 5811 5816 5823 5828 5829 5829 5831 5831 5832 5833 5834 5835 5837 5840 5842 5844
5574 5570 5567 5567 5567 5564 5564 5566 5569 5570 5572 5576 5579 5581 5584 5587 5590 5594 5598 5602 5605 5612 5617 5618 5622 5629 5635 5639 5643 5648 5654 5662 5667 5671 5675 5680 5684 5688 5693 5699 5703 5707 5711 5714 5718 5722 5726 5729 5731 5735 5740 5744 5749 5754 5759 5761 5762 5766 5769 5774 5779 5783 5786 5786 5785 5789 5793 5792 5795 5805 5809 5806 5808 5812 5816 5823 5827 5826 5828 5829 5829 5830 5831 5833 5835 5836 5838 5840
5570 5567 5564 5563 5562 5561 5559 5560 5561 5562 5564 5566 5569 5571 5574 5576 5579 5583 5587 5591 5595 5598 5602 5607 5612 5618 5623 5627 5630 5635 5643 5649 5654 5659 5665 5671 5675 5680 5685 5689 5693 5698 5702 5705 5709 5713 5717 5720 5723 5727 5731 5737 5742 5746 5751 5756 5758 5759 5762 5767 5772 5776 5780 5782 5783 5786 5788 5789 5795 5802 5802 5801 5806 5809 5811 5817 5822 5823 5825 5825 5825 5826 5828 5829 5831 5832 5834 5836
5567 5565 5563 5561 5559 5558 5557 5557 5557 5558 5559 5560 5563 5565 5567 5569 5571 5575 5579 5583 5586 5587 5590 5595 5600 5606 5611 5614 5618 5623 5629 5635 5642 5649 5656 5661 5667 5672 5675 5678 5684 5689 5693 5696 5700 5704 5709 5712 5715 5719 5723 5729 5734 5737 5742 5747 5751 5753 5756 5760 5764 5769 5773 5776 5779 5781 5782 5785 5791 5795 5794 5796 5803 5807 5809 5812 5816 5819 5821 5821 5822 5823 5824 5825 5827 5829 5830 5832
5565 5563 5561 5560 5558 5557 5556 5555 5555 5556 5556 5557 5559 5561 5562 5563 5565 5568 5571 5574 5577 5580 5582 5585 5589 5594 5599 5604 5608 5611 5616 5623 5631 5639 5644 5650 5657 5663 5665 5670 5675 5679 5684 5689 5692 5695 5700 5703 5708 5711 5713 5721 5727 5728 5732 5739 5744 5746 5749 5753 5757 5761 5765 5769 5773 5776 5777 5781 5787 5788 5787 5792 5801 5805 5806 5808 5810 5813 5816 5818 5819 5819 5820 5822 5823 5825 5827 5829
5562 5561 5559 5558 5557 5556 5555 5555 5554 5554 5555 5555 5556 5557 5558 5559 5560 5563 5566 5568 5571 5574 5576 5578 5581 5584 5589 5595 5598 5599 5603 5612 5620 5626 5630 5637 5644 5651 5655 5660 5665 5670 5677 5681 5683 5687 5691 5695 5700 5701 5704 5714 5719 5719 5724 5732 5735 5739 5745 5750 5753 5756 5760 5764 5768 5772 5774 5777 5780 5781 5784 5793 5800 5801 5802 5803 5805 5807 5810 5813 5814 5815 5817 5818 5819 5822 5824 5826